contact:dominique.lefevre@mio.osupytheas.fr, maurice.libes@osupytheas.fr, didier.mallarino@osupytheas.fr
Project:EMSO http://www.emso-fr.org/EMSO-France
Depth: 2436.0 m
Title:EMSO Ligure Ouest : Data MII capteur CSTAR
DateTime,Latitude,Longitude,Instrument_Serial,Reference_Counts,Signal_Counts,Corrected_Signal_raw_counts,Calculated_Beam_c_inverse_meters,Internal_thermistor_counts
DateTime,Latitude,Longitude,Instrument_Serial,Reference_Counts,Signal_Counts,Corrected_Signal_raw_counts,Calculated_Beam_c_inverse_meters,Internal_thermistor_counts
2019-08-30T00:01:52,42.805,6.029,CST-1368DR,8138,11393,15408,0.054,551
2019-08-30T00:04:54,42.805,6.029,CST-1368DR,8138,11391,15406,0.054,551
2019-08-30T00:07:56,42.805,6.029,CST-1368DR,8138,11395,15411,0.053,551
2019-08-30T00:10:58,42.805,6.029,CST-1368DR,8138,11394,15410,0.053,550
2019-08-30T00:13:59,42.805,6.029,CST-1368DR,8138,11394,15410,0.053,551
2019-08-30T00:17:01,42.805,6.029,CST-1368DR,8138,11393,15409,0.053,551
2019-08-30T00:20:02,42.805,6.029,CST-1368DR,8138,11392,15407,0.054,551
2019-08-30T00:23:04,42.805,6.029,CST-1368DR,8138,11390,15404,0.055,551
2019-08-30T00:26:06,42.805,6.029,CST-1368DR,8138,11393,15408,0.054,551
2019-08-30T00:29:07,42.805,6.029,CST-1368DR,8138,11392,15407,0.054,551
2019-08-30T00:32:09,42.805,6.029,CST-1368DR,8138,11393,15408,0.054,550
2019-08-30T00:35:11,42.805,6.029,CST-1368DR,8138,11391,15407,0.054,551
2019-08-30T00:38:12,42.805,6.029,CST-1368DR,8138,11393,15409,0.053,551
2019-08-30T00:41:14,42.805,6.029,CST-1368DR,8138,11393,15408,0.054,550
2019-08-30T00:44:15,42.805,6.029,CST-1368DR,8137,11392,15410,0.053,551
2019-08-30T00:47:17,42.805,6.029,CST-1368DR,8137,11389,15405,0.054,551
2019-08-30T00:50:19,42.805,6.029,CST-1368DR,8137,11392,15409,0.053,551
2019-08-30T00:53:20,42.805,6.029,CST-1368DR,8137,11392,15409,0.053,551
2019-08-30T00:56:22,42.805,6.029,CST-1368DR,8137,11393,15411,0.053,551
2019-08-30T00:59:24,42.805,6.029,CST-1368DR,8137,11393,15410,0.053,551
2019-08-30T01:02:25,42.805,6.029,CST-1368DR,8137,11392,15409,0.053,551
2019-08-30T01:05:27,42.805,6.029,CST-1368DR,8137,11391,15407,0.054,551
2019-08-30T01:08:29,42.805,6.029,CST-1368DR,8137,11393,15410,0.053,551
2019-08-30T01:11:30,42.805,6.029,CST-1368DR,8137,11391,15408,0.054,551
2019-08-30T01:14:32,42.805,6.029,CST-1368DR,8137,11393,15410,0.053,551
2019-08-30T01:17:34,42.805,6.029,CST-1368DR,8137,11391,15408,0.054,551
2019-08-30T01:20:35,42.805,6.029,CST-1368DR,8137,11391,15408,0.054,551
2019-08-30T01:23:37,42.805,6.029,CST-1368DR,8137,11392,15409,0.053,551
2019-08-30T01:26:39,42.805,6.029,CST-1368DR,8137,11392,15410,0.053,551
2019-08-30T01:29:40,42.805,6.029,CST-1368DR,8137,11392,15409,0.053,551
2019-08-30T01:32:42,42.805,6.029,CST-1368DR,8137,11393,15411,0.053,551
2019-08-30T01:35:44,42.805,6.029,CST-1368DR,8137,11393,15411,0.053,551
2019-08-30T01:38:45,42.805,6.029,CST-1368DR,8137,11392,15410,0.053,551
2019-08-30T01:41:47,42.805,6.029,CST-1368DR,8137,11392,15409,0.053,551
2019-08-30T01:44:49,42.805,6.029,CST-1368DR,8137,11393,15410,0.053,551
2019-08-30T01:47:50,42.805,6.029,CST-1368DR,8137,11392,15409,0.053,551
2019-08-30T01:50:52,42.805,6.029,CST-1368DR,8137,11391,15408,0.054,551
2019-08-30T01:53:54,42.805,6.029,CST-1368DR,8137,11390,15407,0.054,551
2019-08-30T01:56:55,42.805,6.029,CST-1368DR,8137,11391,15408,0.054,551
2019-08-30T01:59:57,42.805,6.029,CST-1368DR,8137,11392,15409,0.053,551
2019-08-30T02:02:59,42.805,6.029,CST-1368DR,8137,11392,15410,0.053,551
2019-08-30T02:06:00,42.805,6.029,CST-1368DR,8137,11357,15361,0.066,551
2019-08-30T02:09:02,42.805,6.029,CST-1368DR,8137,11392,15409,0.053,551
2019-08-30T02:12:03,42.805,6.029,CST-1368DR,8137,11392,15410,0.053,551
2019-08-30T02:15:05,42.805,6.029,CST-1368DR,8137,11392,15409,0.053,551
2019-08-30T02:18:07,42.805,6.029,CST-1368DR,8137,11391,15408,0.054,550
2019-08-30T02:21:08,42.805,6.029,CST-1368DR,8137,11391,15408,0.054,551
2019-08-30T02:24:10,42.805,6.029,CST-1368DR,8137,11390,15406,0.054,551
2019-08-30T02:27:12,42.805,6.029,CST-1368DR,8137,11393,15410,0.053,551
2019-08-30T02:30:13,42.805,6.029,CST-1368DR,8137,11392,15409,0.053,551
2019-08-30T02:33:15,42.805,6.029,CST-1368DR,8137,11391,15408,0.054,551
2019-08-30T02:36:16,42.805,6.029,CST-1368DR,8137,11389,15405,0.054,551
2019-08-30T02:39:18,42.805,6.029,CST-1368DR,8137,11389,15405,0.054,551
2019-08-30T02:42:20,42.805,6.029,CST-1368DR,8137,11390,15406,0.054,551
2019-08-30T02:45:21,42.805,6.029,CST-1368DR,8137,11390,15407,0.054,551
2019-08-30T02:48:23,42.805,6.029,CST-1368DR,8137,11391,15408,0.054,551
2019-08-30T02:51:25,42.805,6.029,CST-1368DR,8137,11391,15408,0.054,551
2019-08-30T02:54:26,42.805,6.029,CST-1368DR,8137,11390,15406,0.054,551
2019-08-30T02:57:28,42.805,6.029,CST-1368DR,8137,11390,15406,0.054,551
2019-08-30T03:00:29,42.805,6.029,CST-1368DR,8137,11388,15404,0.055,551
2019-08-30T03:03:31,42.805,6.029,CST-1368DR,8136,11391,15410,0.053,551
2019-08-30T03:06:33,42.805,6.029,CST-1368DR,8136,11390,15409,0.053,551
2019-08-30T03:09:34,42.805,6.029,CST-1368DR,8136,11389,15407,0.054,551
2019-08-30T03:12:36,42.805,6.029,CST-1368DR,8136,11389,15407,0.054,551
2019-08-30T03:15:38,42.805,6.029,CST-1368DR,8137,11391,15408,0.054,551
2019-08-30T03:18:40,42.805,6.029,CST-1368DR,8136,11391,15410,0.053,551
2019-08-30T03:21:41,42.805,6.029,CST-1368DR,8136,11388,15405,0.054,550
2019-08-30T03:24:43,42.805,6.029,CST-1368DR,8136,11390,15408,0.054,550
2019-08-30T03:27:44,42.805,6.029,CST-1368DR,8137,11389,15406,0.054,551
2019-08-30T03:30:46,42.805,6.029,CST-1368DR,8137,11391,15407,0.054,551
2019-08-30T03:33:48,42.805,6.029,CST-1368DR,8137,11389,15405,0.054,551
2019-08-30T03:36:49,42.805,6.029,CST-1368DR,8136,11389,15406,0.054,551
2019-08-30T03:39:51,42.805,6.029,CST-1368DR,8136,11389,15406,0.054,551
2019-08-30T03:42:53,42.805,6.029,CST-1368DR,8136,11390,15408,0.054,551
2019-08-30T03:45:54,42.805,6.029,CST-1368DR,8136,11389,15407,0.054,550
2019-08-30T03:48:56,42.805,6.029,CST-1368DR,8136,11386,15403,0.055,551
2019-08-30T03:51:58,42.805,6.029,CST-1368DR,8136,11390,15408,0.054,551
2019-08-30T03:54:59,42.805,6.029,CST-1368DR,8136,11387,15404,0.055,551
2019-08-30T03:58:02,42.805,6.029,CST-1368DR,8136,11388,15406,0.054,551
2019-08-30T04:01:03,42.805,6.029,CST-1368DR,8136,11388,15405,0.054,551
2019-08-30T04:04:05,42.805,6.029,CST-1368DR,8136,11390,15409,0.053,551
2019-08-30T04:07:06,42.805,6.029,CST-1368DR,8136,11391,15409,0.053,551
2019-08-30T04:10:08,42.805,6.029,CST-1368DR,8136,11391,15409,0.053,551
2019-08-30T04:13:10,42.805,6.029,CST-1368DR,8136,11390,15409,0.053,551
2019-08-30T04:16:11,42.805,6.029,CST-1368DR,8136,11390,15408,0.054,551
2019-08-30T04:19:13,42.805,6.029,CST-1368DR,8136,11389,15406,0.054,551
2019-08-30T04:22:15,42.805,6.029,CST-1368DR,8136,11389,15407,0.054,551
2019-08-30T04:25:16,42.805,6.029,CST-1368DR,8136,11388,15406,0.054,551
2019-08-30T04:28:18,42.805,6.029,CST-1368DR,8136,11382,15398,0.056,551
2019-08-30T04:31:20,42.805,6.029,CST-1368DR,8136,11386,15403,0.055,551
2019-08-30T04:34:21,42.805,6.029,CST-1368DR,8136,11389,15407,0.054,551
2019-08-30T04:37:23,42.805,6.029,CST-1368DR,8136,11386,15403,0.055,551
2019-08-30T04:40:25,42.805,6.029,CST-1368DR,8136,11389,15407,0.054,551
2019-08-30T04:43:26,42.805,6.029,CST-1368DR,8136,11390,15408,0.054,551
2019-08-30T04:46:28,42.805,6.029,CST-1368DR,8136,11388,15406,0.054,551
2019-08-30T04:49:30,42.805,6.029,CST-1368DR,8136,11390,15408,0.054,551
2019-08-30T04:52:31,42.805,6.029,CST-1368DR,8136,11389,15407,0.054,551
2019-08-30T04:55:33,42.805,6.029,CST-1368DR,8136,11389,15406,0.054,551
2019-08-30T04:58:35,42.805,6.029,CST-1368DR,8136,11389,15406,0.054,551
2019-08-30T05:01:36,42.805,6.029,CST-1368DR,8136,11387,15404,0.055,551
2019-08-30T05:04:38,42.805,6.029,CST-1368DR,8136,11389,15407,0.054,551
2019-08-30T05:07:39,42.805,6.029,CST-1368DR,8136,11389,15407,0.054,551
2019-08-30T05:10:41,42.805,6.029,CST-1368DR,8136,11386,15403,0.055,551
2019-08-30T05:13:43,42.805,6.029,CST-1368DR,8136,11388,15406,0.054,551
2019-08-30T05:16:44,42.805,6.029,CST-1368DR,8136,11388,15405,0.054,551
2019-08-30T05:19:46,42.805,6.029,CST-1368DR,8136,11388,15406,0.054,551
2019-08-30T05:22:48,42.805,6.029,CST-1368DR,8136,11388,15405,0.054,551
2019-08-30T05:25:49,42.805,6.029,CST-1368DR,8136,11389,15407,0.054,551
2019-08-30T05:28:51,42.805,6.029,CST-1368DR,8136,11388,15405,0.054,550
2019-08-30T05:31:53,42.805,6.029,CST-1368DR,8136,11388,15405,0.054,551
2019-08-30T05:34:54,42.805,6.029,CST-1368DR,8136,11389,15407,0.054,551
2019-08-30T05:37:56,42.805,6.029,CST-1368DR,8136,11387,15405,0.054,551
2019-08-30T05:40:57,42.805,6.029,CST-1368DR,8136,11388,15406,0.054,551
2019-08-30T05:43:59,42.805,6.029,CST-1368DR,8136,11390,15408,0.054,551
2019-08-30T05:47:01,42.805,6.029,CST-1368DR,8136,11389,15407,0.054,551
2019-08-30T05:50:02,42.805,6.029,CST-1368DR,8136,11389,15407,0.054,551
2019-08-30T05:53:04,42.805,6.029,CST-1368DR,8136,11389,15407,0.054,551
2019-08-30T05:56:06,42.805,6.029,CST-1368DR,8136,11389,15407,0.054,551
2019-08-30T05:59:07,42.805,6.029,CST-1368DR,8136,11390,15409,0.053,550
2019-08-30T06:02:09,42.805,6.029,CST-1368DR,8136,11390,15408,0.054,551
2019-08-30T06:05:11,42.805,6.029,CST-1368DR,8136,11388,15406,0.054,551
2019-08-30T06:08:12,42.805,6.029,CST-1368DR,8135,11385,15404,0.055,551
2019-08-30T06:11:14,42.805,6.029,CST-1368DR,8136,11388,15405,0.054,551
2019-08-30T06:14:16,42.805,6.029,CST-1368DR,8136,11388,15405,0.054,551
2019-08-30T06:17:17,42.805,6.029,CST-1368DR,8136,11388,15405,0.054,551
2019-08-30T06:20:19,42.805,6.029,CST-1368DR,8136,11389,15406,0.054,551
2019-08-30T06:23:20,42.805,6.029,CST-1368DR,8136,11389,15406,0.054,551
2019-08-30T06:26:22,42.805,6.029,CST-1368DR,8136,11388,15405,0.054,551
2019-08-30T06:29:24,42.805,6.029,CST-1368DR,8136,11388,15406,0.054,551
2019-08-30T06:32:25,42.805,6.029,CST-1368DR,8135,11388,15407,0.054,551
2019-08-30T06:35:27,42.805,6.029,CST-1368DR,8135,11389,15408,0.054,551
2019-08-30T06:38:29,42.805,6.029,CST-1368DR,8135,11388,15408,0.054,551
2019-08-30T06:41:30,42.805,6.029,CST-1368DR,8135,11381,15397,0.056,551
2019-08-30T06:44:32,42.805,6.029,CST-1368DR,8135,11389,15408,0.054,551
2019-08-30T06:47:34,42.805,6.029,CST-1368DR,8135,11388,15408,0.054,551
2019-08-30T06:50:35,42.805,6.029,CST-1368DR,8135,11389,15409,0.053,551
2019-08-30T06:53:37,42.805,6.029,CST-1368DR,8135,11389,15409,0.053,551
2019-08-30T06:56:39,42.805,6.029,CST-1368DR,8135,11389,15409,0.053,551
2019-08-30T06:59:41,42.805,6.029,CST-1368DR,8135,11389,15408,0.054,551
2019-08-30T07:02:42,42.805,6.029,CST-1368DR,8135,11388,15407,0.054,551
2019-08-30T07:05:44,42.805,6.029,CST-1368DR,8135,11388,15407,0.054,551
2019-08-30T07:08:46,42.805,6.029,CST-1368DR,8135,11389,15408,0.054,551
2019-08-30T07:11:47,42.805,6.029,CST-1368DR,8135,11388,15407,0.054,551
2019-08-30T07:14:49,42.805,6.029,CST-1368DR,8135,11388,15408,0.054,551
2019-08-30T07:17:51,42.805,6.029,CST-1368DR,8135,11389,15409,0.053,551
2019-08-30T07:20:52,42.805,6.029,CST-1368DR,8135,11388,15407,0.054,551
2019-08-30T07:23:54,42.805,6.029,CST-1368DR,8135,11389,15409,0.053,551
2019-08-30T07:26:55,42.805,6.029,CST-1368DR,8135,11388,15407,0.054,551
2019-08-30T07:29:57,42.805,6.029,CST-1368DR,8135,11389,15409,0.053,551
2019-08-30T07:32:59,42.805,6.029,CST-1368DR,8135,11389,15409,0.053,551
2019-08-30T07:36:00,42.805,6.029,CST-1368DR,8135,11386,15405,0.054,551
2019-08-30T07:39:02,42.805,6.029,CST-1368DR,8135,11387,15406,0.054,550
2019-08-30T07:42:04,42.805,6.029,CST-1368DR,8135,11389,15409,0.053,551
2019-08-30T07:45:05,42.805,6.029,CST-1368DR,8135,11389,15409,0.053,551
2019-08-30T07:48:07,42.805,6.029,CST-1368DR,8135,11389,15409,0.053,551
2019-08-30T07:51:09,42.805,6.029,CST-1368DR,8135,11389,15408,0.054,551
2019-08-30T07:54:11,42.805,6.029,CST-1368DR,8135,11389,15408,0.054,551
2019-08-30T07:57:12,42.805,6.029,CST-1368DR,8135,11388,15408,0.054,551
2019-08-30T08:00:14,42.805,6.029,CST-1368DR,8135,11387,15406,0.054,551
2019-08-30T08:03:15,42.805,6.029,CST-1368DR,8135,11387,15406,0.054,551
2019-08-30T08:06:17,42.805,6.029,CST-1368DR,8135,11388,15408,0.054,551
2019-08-30T08:09:19,42.805,6.029,CST-1368DR,8135,11384,15402,0.055,551
2019-08-30T08:12:20,42.805,6.029,CST-1368DR,8135,11386,15404,0.055,551
2019-08-30T08:15:22,42.805,6.029,CST-1368DR,8135,11389,15408,0.054,550
2019-08-30T08:18:24,42.805,6.029,CST-1368DR,8135,11390,15409,0.053,551
2019-08-30T08:21:25,42.805,6.029,CST-1368DR,8135,11387,15406,0.054,550
2019-08-30T08:24:27,42.805,6.029,CST-1368DR,8135,11389,15409,0.053,551
2019-08-30T08:27:29,42.805,6.029,CST-1368DR,8135,11389,15409,0.053,551
2019-08-30T08:30:30,42.805,6.029,CST-1368DR,8135,11387,15406,0.054,551
2019-08-30T08:33:32,42.805,6.029,CST-1368DR,8135,11389,15408,0.054,551
2019-08-30T08:36:33,42.805,6.029,CST-1368DR,8135,11389,15408,0.054,550
2019-08-30T08:39:35,42.805,6.029,CST-1368DR,8135,11389,15409,0.053,551
2019-08-30T08:42:37,42.805,6.029,CST-1368DR,8135,11389,15409,0.053,550
2019-08-30T08:45:38,42.805,6.029,CST-1368DR,8135,11389,15408,0.054,551
2019-08-30T08:48:40,42.805,6.029,CST-1368DR,8135,11387,15406,0.054,550
2019-08-30T08:51:42,42.805,6.029,CST-1368DR,8135,11384,15402,0.055,551
2019-08-30T08:54:43,42.805,6.029,CST-1368DR,8135,11389,15408,0.054,551
2019-08-30T08:57:45,42.805,6.029,CST-1368DR,8135,11388,15407,0.054,551
2019-08-30T09:00:46,42.805,6.029,CST-1368DR,8135,11388,15407,0.054,551
2019-08-30T09:03:48,42.805,6.029,CST-1368DR,8135,11389,15408,0.054,551
2019-08-30T09:06:50,42.805,6.029,CST-1368DR,8134,11386,15406,0.054,551
2019-08-30T09:09:51,42.805,6.029,CST-1368DR,8135,11389,15409,0.053,551
2019-08-30T09:12:53,42.805,6.029,CST-1368DR,8135,11387,15406,0.054,551
2019-08-30T09:15:55,42.805,6.029,CST-1368DR,8134,11386,15406,0.054,551
2019-08-30T09:18:56,42.805,6.029,CST-1368DR,8134,11384,15404,0.055,551
2019-08-30T09:21:58,42.805,6.029,CST-1368DR,8134,11388,15409,0.053,551
2019-08-30T09:25:00,42.805,6.029,CST-1368DR,8134,11388,15408,0.054,551
2019-08-30T09:28:02,42.805,6.029,CST-1368DR,8134,11389,15410,0.053,551
2019-08-30T09:31:04,42.805,6.029,CST-1368DR,8134,11387,15408,0.054,551
2019-08-30T09:34:05,42.805,6.029,CST-1368DR,8134,11388,15409,0.053,551
2019-08-30T09:37:07,42.805,6.029,CST-1368DR,8134,11388,15409,0.053,551
2019-08-30T09:40:08,42.805,6.029,CST-1368DR,8134,11387,15408,0.054,551
2019-08-30T09:43:10,42.805,6.029,CST-1368DR,8134,11386,15406,0.054,551
2019-08-30T09:46:12,42.805,6.029,CST-1368DR,8134,11388,15409,0.053,550
2019-08-30T09:49:13,42.805,6.029,CST-1368DR,8134,11388,15409,0.053,550
2019-08-30T09:52:15,42.805,6.029,CST-1368DR,8134,11388,15409,0.053,551
2019-08-30T09:55:17,42.805,6.029,CST-1368DR,8134,11388,15408,0.054,551
2019-08-30T09:58:18,42.805,6.029,CST-1368DR,8134,11388,15409,0.053,551
2019-08-30T10:01:20,42.805,6.029,CST-1368DR,8134,11386,15406,0.054,551
2019-08-30T10:04:22,42.805,6.029,CST-1368DR,8134,11388,15408,0.054,551
2019-08-30T10:07:24,42.805,6.029,CST-1368DR,8134,11386,15406,0.054,551
2019-08-30T10:10:25,42.805,6.029,CST-1368DR,8134,11387,15408,0.054,550
2019-08-30T10:13:27,42.805,6.029,CST-1368DR,8134,11386,15406,0.054,551
2019-08-30T10:16:29,42.805,6.029,CST-1368DR,8134,11387,15408,0.054,551
2019-08-30T10:19:30,42.805,6.029,CST-1368DR,8134,11388,15408,0.054,551
2019-08-30T10:22:32,42.805,6.029,CST-1368DR,8134,11388,15408,0.054,551
2019-08-30T10:25:34,42.805,6.029,CST-1368DR,8134,11386,15406,0.054,551
2019-08-30T10:28:35,42.805,6.029,CST-1368DR,8134,11387,15407,0.054,551
2019-08-30T10:31:37,42.805,6.029,CST-1368DR,8134,11388,15408,0.054,551
2019-08-30T10:34:39,42.805,6.029,CST-1368DR,8134,11389,15411,0.053,551
2019-08-30T10:37:40,42.805,6.029,CST-1368DR,8134,11387,15407,0.054,551
2019-08-30T10:40:42,42.805,6.029,CST-1368DR,8134,11387,15407,0.054,551
2019-08-30T10:43:43,42.805,6.029,CST-1368DR,8134,11386,15406,0.054,551
2019-08-30T10:46:45,42.805,6.029,CST-1368DR,8134,11388,15409,0.053,551
2019-08-30T10:49:47,42.805,6.029,CST-1368DR,8134,11386,15406,0.054,551
2019-08-30T10:52:48,42.805,6.029,CST-1368DR,8134,11388,15409,0.053,551
2019-08-30T10:55:50,42.805,6.029,CST-1368DR,8134,11389,15411,0.053,551
2019-08-30T10:58:52,42.805,6.029,CST-1368DR,8134,11382,15400,0.056,551
2019-08-30T11:01:53,42.805,6.029,CST-1368DR,8134,11383,15402,0.055,551
2019-08-30T11:04:55,42.805,6.029,CST-1368DR,8134,11388,15409,0.053,551
2019-08-30T11:07:56,42.805,6.029,CST-1368DR,8134,11388,15409,0.053,551
2019-08-30T11:10:58,42.805,6.029,CST-1368DR,8134,11386,15407,0.054,551
2019-08-30T11:14:00,42.805,6.029,CST-1368DR,8134,11387,15407,0.054,551
2019-08-30T11:17:01,42.805,6.029,CST-1368DR,8134,11386,15406,0.054,551
2019-08-30T11:20:03,42.805,6.029,CST-1368DR,8134,11387,15408,0.054,551
2019-08-30T11:23:05,42.805,6.029,CST-1368DR,8134,11386,15406,0.054,550
2019-08-30T11:26:06,42.805,6.029,CST-1368DR,8133,11385,15407,0.054,551
2019-08-30T11:29:08,42.805,6.029,CST-1368DR,8133,11385,15406,0.054,550
2019-08-30T11:32:10,42.805,6.029,CST-1368DR,8133,11387,15409,0.053,551
2019-08-30T11:35:11,42.805,6.029,CST-1368DR,8133,11386,15408,0.054,551
2019-08-30T11:38:13,42.805,6.029,CST-1368DR,8133,11386,15408,0.054,551
2019-08-30T11:41:14,42.805,6.029,CST-1368DR,8133,11384,15405,0.054,550
2019-08-30T11:44:16,42.805,6.029,CST-1368DR,8133,11387,15410,0.053,551
2019-08-30T11:47:18,42.805,6.029,CST-1368DR,8133,11387,15409,0.053,551
2019-08-30T11:50:19,42.805,6.029,CST-1368DR,8133,11383,15403,0.055,551
2019-08-30T11:53:21,42.805,6.029,CST-1368DR,8133,11387,15410,0.053,550
2019-08-30T11:56:23,42.805,6.029,CST-1368DR,8133,11388,15410,0.053,551
2019-08-30T11:59:24,42.805,6.029,CST-1368DR,8133,11387,15409,0.053,551
2019-08-30T12:02:26,42.805,6.029,CST-1368DR,8133,11386,15408,0.054,551
2019-08-30T12:05:28,42.805,6.029,CST-1368DR,8133,11387,15410,0.053,550
2019-08-30T12:08:29,42.805,6.029,CST-1368DR,8133,11388,15411,0.053,551
2019-08-30T12:11:31,42.805,6.029,CST-1368DR,8133,11387,15410,0.053,551
2019-08-30T12:14:33,42.805,6.029,CST-1368DR,8133,11388,15411,0.053,551
2019-08-30T12:17:34,42.805,6.029,CST-1368DR,8133,11387,15410,0.053,551
2019-08-30T12:20:36,42.805,6.029,CST-1368DR,8133,11386,15409,0.053,551
2019-08-30T12:23:37,42.805,6.029,CST-1368DR,8133,11387,15409,0.053,551
2019-08-30T12:26:39,42.805,6.029,CST-1368DR,8133,11387,15410,0.053,551
2019-08-30T12:29:41,42.805,6.029,CST-1368DR,8133,11384,15405,0.054,551
2019-08-30T12:32:42,42.805,6.029,CST-1368DR,8133,11387,15409,0.053,551
2019-08-30T12:35:44,42.805,6.029,CST-1368DR,8133,11386,15409,0.053,551
2019-08-30T12:38:46,42.805,6.029,CST-1368DR,8133,11386,15408,0.054,551
2019-08-30T12:41:47,42.805,6.029,CST-1368DR,8133,11385,15406,0.054,551
2019-08-30T12:44:49,42.805,6.029,CST-1368DR,8133,11386,15408,0.054,551
2019-08-30T12:47:51,42.805,6.029,CST-1368DR,8133,11385,15407,0.054,551
2019-08-30T12:50:52,42.805,6.029,CST-1368DR,8133,11385,15407,0.054,551
2019-08-30T12:53:54,42.805,6.029,CST-1368DR,8133,11387,15410,0.053,551
2019-08-30T12:56:55,42.805,6.029,CST-1368DR,8133,11386,15408,0.054,551
2019-08-30T12:59:57,42.805,6.029,CST-1368DR,8133,11385,15406,0.054,551
2019-08-30T13:02:59,42.805,6.029,CST-1368DR,8133,11385,15407,0.054,551
2019-08-30T13:06:00,42.805,6.029,CST-1368DR,8133,11386,15408,0.054,550
2019-08-30T13:09:02,42.805,6.029,CST-1368DR,8133,11386,15409,0.053,551
2019-08-30T13:12:04,42.805,6.029,CST-1368DR,8133,11387,15410,0.053,551
2019-08-30T13:15:05,42.805,6.029,CST-1368DR,8133,11388,15411,0.053,551
2019-08-30T13:18:07,42.805,6.029,CST-1368DR,8133,11386,15408,0.054,551
2019-08-30T13:21:09,42.805,6.029,CST-1368DR,8133,11385,15406,0.054,551
2019-08-30T13:24:10,42.805,6.029,CST-1368DR,8133,11387,15410,0.053,551
2019-08-30T13:27:12,42.805,6.029,CST-1368DR,8133,11387,15409,0.053,551
2019-08-30T13:30:14,42.805,6.029,CST-1368DR,8133,11386,15408,0.054,551
2019-08-30T13:33:16,42.805,6.029,CST-1368DR,8133,11386,15408,0.054,551
2019-08-30T13:36:17,42.805,6.029,CST-1368DR,8133,11384,15405,0.054,550
2019-08-30T13:39:19,42.805,6.029,CST-1368DR,8133,11386,15408,0.054,551
2019-08-30T13:42:20,42.805,6.029,CST-1368DR,8133,11387,15409,0.053,551
2019-08-30T13:45:22,42.805,6.029,CST-1368DR,8133,11385,15406,0.054,551
2019-08-30T13:48:24,42.805,6.029,CST-1368DR,8133,11385,15407,0.054,551
2019-08-30T13:51:25,42.805,6.029,CST-1368DR,8133,11386,15408,0.054,551
2019-08-30T13:54:27,42.805,6.029,CST-1368DR,8133,11386,15408,0.054,550
2019-08-30T13:57:29,42.805,6.029,CST-1368DR,8132,11386,15409,0.053,551
2019-08-30T14:00:30,42.805,6.029,CST-1368DR,8133,11385,15406,0.054,551
2019-08-30T14:03:32,42.805,6.029,CST-1368DR,8133,11386,15408,0.054,551
2019-08-30T14:06:34,42.805,6.029,CST-1368DR,8132,11386,15410,0.053,551
2019-08-30T14:09:35,42.805,6.029,CST-1368DR,8133,11386,15408,0.054,551
2019-08-30T14:12:37,42.805,6.029,CST-1368DR,8132,11385,15408,0.054,551
2019-08-30T14:15:38,42.805,6.029,CST-1368DR,8132,11385,15408,0.054,551
2019-08-30T14:18:40,42.805,6.029,CST-1368DR,8132,11386,15409,0.053,551
2019-08-30T14:21:42,42.805,6.029,CST-1368DR,8132,11384,15407,0.054,551
2019-08-30T14:24:43,42.805,6.029,CST-1368DR,8132,11385,15409,0.053,551
2019-08-30T14:27:45,42.805,6.029,CST-1368DR,8132,11385,15409,0.053,551
2019-08-30T14:30:47,42.805,6.029,CST-1368DR,8132,11384,15407,0.054,551
2019-08-30T14:33:48,42.805,6.029,CST-1368DR,8132,11384,15407,0.054,551
2019-08-30T14:36:50,42.805,6.029,CST-1368DR,8132,11384,15407,0.054,551
2019-08-30T14:39:52,42.805,6.029,CST-1368DR,8132,11385,15408,0.054,551
2019-08-30T14:42:53,42.805,6.029,CST-1368DR,8132,11384,15408,0.054,550
2019-08-30T14:45:55,42.805,6.029,CST-1368DR,8132,11384,15408,0.054,551
2019-08-30T14:48:57,42.805,6.029,CST-1368DR,8132,11386,15410,0.053,551
2019-08-30T14:51:58,42.805,6.029,CST-1368DR,8132,11384,15407,0.054,551
2019-08-30T14:55:00,42.805,6.029,CST-1368DR,8132,11385,15408,0.054,551
2019-08-30T14:58:02,42.805,6.029,CST-1368DR,8132,11384,15407,0.054,551
2019-08-30T15:01:04,42.805,6.029,CST-1368DR,8132,11384,15407,0.054,551
2019-08-30T15:04:05,42.805,6.029,CST-1368DR,8132,11386,15410,0.053,551
2019-08-30T15:07:07,42.805,6.029,CST-1368DR,8132,11385,15409,0.053,551
2019-08-30T15:10:09,42.805,6.029,CST-1368DR,8132,11385,15409,0.053,551
2019-08-30T15:13:10,42.805,6.029,CST-1368DR,8132,11385,15409,0.053,551
2019-08-30T15:16:12,42.805,6.029,CST-1368DR,8132,11382,15405,0.054,551
2019-08-30T15:19:14,42.805,6.029,CST-1368DR,8132,11384,15408,0.054,551
2019-08-30T15:22:15,42.805,6.029,CST-1368DR,8132,11385,15409,0.053,551
2019-08-30T15:25:17,42.805,6.029,CST-1368DR,8132,11385,15408,0.054,551
2019-08-30T15:28:18,42.805,6.029,CST-1368DR,8132,11385,15409,0.053,551
2019-08-30T15:31:20,42.805,6.029,CST-1368DR,8132,11384,15408,0.054,551
2019-08-30T15:34:22,42.805,6.029,CST-1368DR,8132,11384,15408,0.054,551
2019-08-30T15:37:23,42.805,6.029,CST-1368DR,8132,11383,15406,0.054,551
2019-08-30T15:40:25,42.805,6.029,CST-1368DR,8132,11385,15409,0.053,551
2019-08-30T15:43:27,42.805,6.029,CST-1368DR,8132,11386,15410,0.053,551
2019-08-30T15:46:28,42.805,6.029,CST-1368DR,8132,11385,15409,0.053,551
2019-08-30T15:49:30,42.805,6.029,CST-1368DR,8132,11386,15410,0.053,550
2019-08-30T15:52:32,42.805,6.029,CST-1368DR,8132,11384,15407,0.054,551
2019-08-30T15:55:33,42.805,6.029,CST-1368DR,8132,11385,15409,0.053,551
2019-08-30T15:58:35,42.805,6.029,CST-1368DR,8132,11385,15408,0.054,551
2019-08-30T16:01:37,42.805,6.029,CST-1368DR,8131,11384,15409,0.053,551
2019-08-30T16:04:38,42.805,6.029,CST-1368DR,8132,11385,15408,0.054,550
2019-08-30T16:07:40,42.805,6.029,CST-1368DR,8131,11385,15410,0.053,551
2019-08-30T16:10:42,42.805,6.029,CST-1368DR,8131,11385,15410,0.053,551
2019-08-30T16:13:43,42.805,6.029,CST-1368DR,8131,11384,15409,0.053,551
2019-08-30T16:16:45,42.805,6.029,CST-1368DR,8131,11382,15406,0.054,551
2019-08-30T16:19:46,42.805,6.029,CST-1368DR,8131,11384,15409,0.053,551
2019-08-30T16:22:48,42.805,6.029,CST-1368DR,8131,11385,15411,0.053,550
2019-08-30T16:25:50,42.805,6.029,CST-1368DR,8131,11385,15411,0.053,551
2019-08-30T16:28:51,42.805,6.029,CST-1368DR,8131,11385,15410,0.053,551
2019-08-30T16:31:53,42.805,6.029,CST-1368DR,8131,11384,15409,0.053,551
2019-08-30T16:34:55,42.805,6.029,CST-1368DR,8131,11385,15410,0.053,551
2019-08-30T16:37:56,42.805,6.029,CST-1368DR,8131,11385,15411,0.053,550